Regional Weather Roundup
Issued by NWS

Home | Current Version | Previous Version | Text Only | Print | Product List | Glossary Off
Versions: 1 2 3 4 5 6 7 8 9 10 11 12 13 14 15 16 17 18 19 20 21 22 23 24 25 26 27 28 29 30 31 32 33 34 35 36 37 38 39 40 41 42 43 44 45 46 47 48 49 50

000
ASUS43 KFSD 250902
RWRSD

WEATHER ROUNDUP FOR SOUTH DAKOTA
NATIONAL WEATHER SERVICE SIOUX FALLS SD
400 AM CDT SUN SEP 25 2016

NOTE: "FAIR" INDICATES FEW OR NO CLOUDS BELOW 12,000 FEET WITH NO
SIGNIFICANT WEATHER AND/OR OBSTRUCTIONS TO VISIBILITY.


SDZ001>005-009-010-012>017-251000-
NORTHWEST AND NORTH CENTRAL SOUTH DAKOTA

CITY           SKY/WX    TMP DP  RH WIND       PRES   REMARKS
BUFFALO          N/A     51  47  86 NW25G33   30.04R
FAITH            N/A     51  47  86 NW26G39   30.03R
MOBRIDGE       CLOUDY    56  48  74 NW33G45   29.83R
$$

SDZ012>016-024>037-041>051-057-063-072>074-251000-
SOUTHWEST AND SOUTH CENTRAL SOUTH DAKOTA

CITY           SKY/WX    TMP DP  RH WIND       PRES   REMARKS
RAPID CTY ARPT CLOUDY    51  44  77 NW15G25   30.17R
PIERRE         CLOUDY    57  45  64 NW25G43   29.94R
CUSTER         CLOUDY    44  34  67 NW13G22   30.21R
ELLSWORTH AFB  CLOUDY    51  46  83 NW15G22   30.16R
PHILIP         CLOUDY    55  45  68 W28G38    30.07R
PINE RIDGE     PTCLDY    51  43  74 W13G23    30.19R
WINNER         LGT RAIN  59  44  57 NW26G37   30.03S
$$

SDZ004>011-016>023-039-040-251000-
NORTHEAST SOUTH DAKOTA

CITY           SKY/WX    TMP DP  RH WIND       PRES   REMARKS
ABERDEEN       PTCLDY    53  46  77 S15G22    29.81F
WATERTOWN      CLEAR     52  45  77 SW12      29.89F
SISSETON         N/A     57  46  66 W15G22    29.81F
$$

SDZ017-020-022-023-036>040-048>070-251000-
SOUTHEAST SOUTH DAKOTA

CITY           SKY/WX    TMP DP  RH WIND       PRES   REMARKS
SIOUX FALLS    PTCLDY    55  47  74 W8        29.97R
HURON          CLEAR     54  46  74 SW10      29.92S
CHAMBERLAIN    CLOUDY    60  47  62 W21G28    29.99R
MITCHELL       CLEAR     55  45  68 W12       29.97S
YANKTON        CLEAR     55  45  67 W12       30.00R
$$

ABBREVIATIONS USED IN REMARKS
   TC - TEMPERATURE IN CELSIUS
  WCI - WIND CHILL INDEX
   HX - HEAT INDEX
  VSB - VISIBILITY




USA.gov is the U.S. government's official web portal to all federal, state and local government web resources and services.